When you browse on this site, cookies collect data to enhance your experience and personalize the content and advertising you see.
Visit our Privacy Policy to learn more. By continuing to use the site, you agree to this use of cookies and data.
  • In Spain
  • List of Countries
  • For 7 days
  • Water Temperature
  • Weather Map
  • Weather Widgets
  • user-avatar
    Login

    Hourly Weather Praia

    Today, 20 August, Tuesday

    Time Temperature Precipitation Wind Pressure Humidity
    00:00 +26°C° 1.1 mm 3 mps 683 mmHg 74%
    01:00 +25°C° 1.1 mm 3 mps 683 mmHg 76%
    02:00 +25°C° 1.1 mm 3 mps 683 mmHg 77%
    03:00 +25°C° 0.6 mm 2 mps 683 mmHg 78%
    04:00 +25°C° 0.6 mm 2 mps 682 mmHg 79%
    05:00 +25°C° 0.6 mm 2 mps 682 mmHg 79%
    06:00 +25°C° 0.1 mm 2 mps 683 mmHg 78%
    07:00 +25°C° 0.1 mm 1 mps 683 mmHg 77%
    08:00 +25°C° 0.1 mm 1 mps 683 mmHg 76%
    09:00 +26°C° 0.1 mm 1 mps 684 mmHg 71%
    10:00 +27°C° 0.1 mm 2 mps 684 mmHg 66%
    11:00 +28°C° 0.1 mm 2 mps 684 mmHg 61%
    12:00 +29°C° 0 mm 2 mps 684 mmHg 58%
    13:00 +30°C° 0 mm 2 mps 683 mmHg 54%
    14:00 +30°C° 0 mm 2 mps 683 mmHg 51%
    15:00 +31°C° 0 mm 2 mps 683 mmHg 50%
    16:00 +31°C° 0 mm 1 mps 682 mmHg 48%
    17:00 +31°C° 0 mm 1 mps 682 mmHg 47%
    18:00 +31°C° 0 mm 1 mps 682 mmHg 49%
    19:00 +31°C° 0 mm 1 mps 683 mmHg 50%
    20:00 +31°C° 0 mm 1 mps 683 mmHg 51%
    21:00 +30°C° 0.1 mm 2 mps 684 mmHg 55%
    22:00 +29°C° 0.1 mm 2 mps 684 mmHg 58%
    23:00 +29°C° 0.1 mm 3 mps 684 mmHg 61%

    Tomorrow, 21 August, Wednesday

    Time Temperature Precipitation Wind Pressure Humidity
    00:00 +28°C° 0 mm 3 mps 684 mmHg 64%
    01:00 +28°C° 0 mm 3 mps 683 mmHg 66%
    02:00 +27°C° 0 mm 3 mps 683 mmHg 69%
    03:00 +27°C° 0 mm 3 mps 683 mmHg 71%
    04:00 +27°C° 0 mm 2 mps 683 mmHg 72%
    05:00 +26°C° 0 mm 2 mps 683 mmHg 74%
    06:00 +26°C° 0 mm 2 mps 683 mmHg 72%
    07:00 +27°C° 0 mm 2 mps 683 mmHg 70%
    08:00 +27°C° 0 mm 2 mps 684 mmHg 69%
    09:00 +28°C° 0 mm 2 mps 684 mmHg 64%
    10:00 +29°C° 0 mm 1 mps 684 mmHg 60%
    11:00 +30°C° 0 mm 1 mps 684 mmHg 56%
    12:00 +31°C° 0 mm 1 mps 684 mmHg 52%
    13:00 +31°C° 0 mm 1 mps 683 mmHg 49%
    14:00 +30°C° 0 mm 0 mps 683 mmHg 46%
    15:00 +32°C° 1.2 mm 1 mps 682 mmHg 50%
    16:00 +31°C° 1.2 mm 2 mps 682 mmHg 54%
    17:00 +30°C° 1.2 mm 3 mps 681 mmHg 58%
    18:00 +28°C° 10.1 mm 4 mps 681 mmHg 68%
    19:00 +25°C° 10.1 mm 5 mps 681 mmHg 78%
    20:00 +22°C° 10.1 mm 6 mps 682 mmHg 88%
    21:00 +22°C° 1.9 mm 5 mps 682 mmHg 85%
    22:00 +22°C° 1.9 mm 5 mps 683 mmHg 82%
    23:00 +23°C° 1.9 mm 4 mps 684 mmHg 79%

    Day after tomorrow, 22 August, Thursday

    Time Temperature Precipitation Wind Pressure Humidity
    00:00 +24°C° 0 mm 3 mps 683 mmHg 79%
    01:00 +24°C° 0 mm 2 mps 683 mmHg 79%
    02:00 +24°C° 0 mm 2 mps 682 mmHg 79%
    03:00 +24°C° 0 mm 1 mps 682 mmHg 79%
    04:00 +24°C° 0 mm 1 mps 683 mmHg 79%
    05:00 +24°C° 0 mm 1 mps 683 mmHg 79%
    06:00 +24°C° 0 mm 1 mps 683 mmHg 78%
    07:00 +24°C° 0 mm 1 mps 684 mmHg 77%
    08:00 +25°C° 0 mm 2 mps 684 mmHg 75%
    09:00 +26°C° 0.1 mm 1 mps 684 mmHg 71%
    10:00 +25°C° 0.1 mm 0 mps 684 mmHg 67%
    11:00 +26°C° 0.1 mm 0 mps 684 mmHg 62%
    12:00 +27°C° 0 mm 0 mps 684 mmHg 58%
    13:00 +30°C° 0 mm 1 mps 683 mmHg 53%
    14:00 +31°C° 0 mm 1 mps 683 mmHg 48%
    15:00 +31°C° 0 mm 1 mps 683 mmHg 46%
    16:00 +32°C° 0 mm 1 mps 682 mmHg 44%
    17:00 +32°C° 0 mm 2 mps 682 mmHg 42%
    18:00 +31°C° 0.3 mm 2 mps 682 mmHg 50%
    19:00 +29°C° 0.3 mm 3 mps 682 mmHg 58%
    20:00 +28°C° 0.3 mm 4 mps 682 mmHg 65%
    21:00 +27°C° 2.4 mm 5 mps 683 mmHg 70%
    22:00 +26°C° 2.4 mm 6 mps 683 mmHg 75%
    23:00 +24°C° 2.4 mm 7 mps 683 mmHg 80%

    23 August, Friday

    Time Temperature Precipitation Wind Pressure Humidity
    00:00 +23°C° 2.5 mm 6 mps 683 mmHg 81%
    01:00 +23°C° 2.5 mm 5 mps 683 mmHg 82%
    02:00 +23°C° 2.5 mm 5 mps 683 mmHg 83%
    03:00 +24°C° 0 mm 3 mps 683 mmHg 81%
    04:00 +25°C° 0 mm 2 mps 683 mmHg 79%
    05:00 +25°C° 0 mm 1 mps 683 mmHg 77%
    06:00 +25°C° 0 mm 1 mps 683 mmHg 76%
    07:00 +25°C° 0 mm 1 mps 683 mmHg 75%
    08:00 +26°C° 0 mm 1 mps 684 mmHg 74%
    09:00 +26°C° 0 mm 2 mps 684 mmHg 70%
    10:00 +27°C° 0 mm 3 mps 684 mmHg 67%
    11:00 +28°C° 0 mm 3 mps 685 mmHg 63%
    12:00 +29°C° 0.4 mm 2 mps 684 mmHg 58%
    13:00 +30°C° 0.4 mm 1 mps 684 mmHg 53%
    14:00 +29°C° 0.4 mm 0 mps 684 mmHg 49%
    15:00 +31°C° 0.4 mm 1 mps 683 mmHg 49%
    16:00 +31°C° 0.4 mm 1 mps 683 mmHg 50%
    17:00 +31°C° 0.4 mm 2 mps 682 mmHg 50%
    18:00 +29°C° 0.6 mm 3 mps 682 mmHg 55%
    19:00 +27°C° 0.6 mm 4 mps 682 mmHg 60%
    20:00 +26°C° 0.6 mm 5 mps 682 mmHg 65%
    21:00 +26°C° 0.9 mm 5 mps 683 mmHg 67%
    22:00 +25°C° 0.9 mm 4 mps 683 mmHg 68%
    23:00 +25°C° 0.9 mm 4 mps 683 mmHg 70%

    24 August, Saturday

    Time Temperature Precipitation Wind Pressure Humidity
    00:00 +25°C° 0.4 mm 3 mps 683 mmHg 71%
    01:00 +25°C° 0.4 mm 3 mps 683 mmHg 72%
    02:00 +25°C° 0.4 mm 3 mps 683 mmHg 73%
    03:00 +24°C° 0.5 mm 3 mps 683 mmHg 73%
    04:00 +24°C° 0.5 mm 3 mps 683 mmHg 72%
    05:00 +24°C° 0.5 mm 3 mps 683 mmHg 72%
    06:00 +25°C° 0.1 mm 3 mps 683 mmHg 73%
    07:00 +25°C° 0.1 mm 3 mps 684 mmHg 74%
    08:00 +25°C° 0.1 mm 4 mps 684 mmHg 75%
    09:00 +27°C° 1.3 mm 3 mps 684 mmHg 69%
    10:00 +28°C° 1.3 mm 3 mps 684 mmHg 62%
    11:00 +29°C° 1.3 mm 3 mps 685 mmHg 56%
    12:00 +30°C° 0 mm 2 mps 684 mmHg 52%
    13:00 +31°C° 0 mm 1 mps 684 mmHg 48%
    14:00 +31°C° 0 mm 1 mps 684 mmHg 45%
    15:00 +32°C° 0 mm 1 mps 683 mmHg 44%
    16:00 +32°C° 0 mm 2 mps 683 mmHg 43%
    17:00 +32°C° 0 mm 2 mps 683 mmHg 42%
    18:00 +31°C° 0.2 mm 2 mps 683 mmHg 48%
    19:00 +30°C° 0.2 mm 3 mps 683 mmHg 54%
    20:00 +29°C° 0.2 mm 4 mps 683 mmHg 59%
    21:00 +28°C° 2.1 mm 4 mps 683 mmHg 65%
    22:00 +26°C° 2.1 mm 5 mps 684 mmHg 71%
    23:00 +25°C° 2.1 mm 5 mps 684 mmHg 77%

    25 August, Sunday

    Time Temperature Precipitation Wind Pressure Humidity
    00:00 +23°C° 5.3 mm 5 mps 684 mmHg 79%
    01:00 +22°C° 5.3 mm 6 mps 683 mmHg 82%
    02:00 +21°C° 5.3 mm 6 mps 683 mmHg 84%
    03:00 +21°C° 1.5 mm 5 mps 683 mmHg 80%
    04:00 +22°C° 1.5 mm 4 mps 684 mmHg 76%
    05:00 +22°C° 1.5 mm 3 mps 684 mmHg 72%
    06:00 +24°C° 0 mm 3 mps 684 mmHg 71%
    07:00 +24°C° 0 mm 3 mps 684 mmHg 70%
    08:00 +25°C° 0 mm 4 mps 684 mmHg 68%
    09:00 +26°C° 0 mm 3 mps 684 mmHg 61%
    10:00 +28°C° 0 mm 2 mps 684 mmHg 54%
    11:00 +29°C° 0 mm 1 mps 685 mmHg 47%
    12:00 +30°C° 0 mm 1 mps 684 mmHg 44%
    13:00 +31°C° 0 mm 1 mps 684 mmHg 41%
    14:00 +32°C° 0 mm 1 mps 683 mmHg 38%
    15:00 +32°C° 0 mm 2 mps 683 mmHg 39%
    16:00 +33°C° 0 mm 3 mps 682 mmHg 39%
    17:00 +33°C° 0 mm 3 mps 682 mmHg 40%
    18:00 +31°C° 0 mm 3 mps 682 mmHg 44%
    19:00 +31°C° 0 mm 2 mps 682 mmHg 49%
    20:00 +30°C° 0 mm 1 mps 683 mmHg 53%
    21:00 +28°C° 1.6 mm 3 mps 683 mmHg 57%
    22:00 +26°C° 1.6 mm 4 mps 683 mmHg 61%
    23:00 +23°C° 1.6 mm 6 mps 683 mmHg 66%
    Show more